Tracking 23757 objects as of 25-Oct-2021
HD Live streaming from Space Station
objects crossing your sky now

FREGAT DEB

Track FREGAT DEB now!
10-day predictions


NORAD ID: 46626
Int'l Code: 2011-037MS
Perigee: 598.0 km
Apogee: 1,522.4 km
Inclination: 51.1 °
Period: 106.3 minutes
Semi major axis: 7431 km
RCS: Unknown
Launch date: July 18, 2011
Source: Commonwealth of Independent States (former USSR) (CIS)
Launch site: TYURATAM MISSILE AND SPACE COMPLEX (TTMTR)

Note: This is SATELLITE DEBRIS
aabbcc
Your satellite tracking list
Your tracking list is empty




NASA's NSSDC Master Catalog

Two Line Element Set (TLE):
1 46626U 11037MS  21297.69941270  .00004806  00000-0  20072-2 0  9996
2 46626  51.1403 179.1691 0621943 271.4339  81.5440 13.55229521 49525
Source of the keplerian elements: AFSPC